www.pogodaiklimat.ru

Погода и климат >> Архив погоды >> Россия >> Якутия >> Оленек


ПОГОДА в Оленеке

АРХИВ ПОГОДЫ в Оленеке

Время (UTC), дата Ветер
(напр.,м/с)
 
Видим.   Явления Облачность Т
(С)
Тd
(С)
f
(%)
Тe
(С)
Тes
(С)
Комфортность P
(гПа)
Po
(гПа)
Тmin
(С)
Tmax
(С)
R
(мм)
R24
(мм)
S
(см)
06 22.04 С 5 н/о н/о -7.1 -11.9 69 -14 -14 1021.3 993.0
09 22.04 С 5 н/о н/о -6.5 -11.4 68 -14 -14 1023.1 994.8
12 22.04 СВ 4 н/о н/о -6.9 -11.5 70 -13 -13 1024.7 996.3 -6.3
15 22.04 С 3 н/о н/о -7.9 -11.3 77 -14 -14 1025.1 996.6
18 22.04 С 2 н/о н/о -8.8 -12.0 78 -13 -13 1025.9 997.3
21 22.04 С 3 н/о н/о -9.1 -12.2 78 -15 -15 1026.3 997.6
00 23.04 СЗ 2 н/о н/о -8.4 -12.5 72 -13 -13 1026.6 998.0 -9.2
03 23.04 С 2 н/о н/о -6.6 -11.7 67 -11 -11 1025.7 997.4
06 23.04 СЗ 2 н/о н/о -3.3 -9.7 61 -7 -7 1023.9 996.0
09 23.04 СВ 3 н/о н/о -2.5 -7.7 67 -7 -7 1023.0 995.1
12 23.04 Ю 1 н/о н/о -4.2 -5.3 92 -7 -7 1022.8 994.8 -1.9
15 23.04 Ю 1 н/о н/о -4.9 -5.8 93 -7 -7 1021.7 993.6
18 23.04 В 2 н/о н/о -5.1 -6.1 93 -9 -9 1020.5 992.4
21 23.04 ЮВ 3 н/о н/о -7.4 -9.9 82 -13 -13 1018.8 990.5
00 24.04 Ю 4 2000 м слабый ливневой снег 10/5 300 м
[Cb cap As op]
-5.1 -6.8 88 -12 -11 1016.6 988.6 -7.4 2 46
03 24.04 ЮЗ 4 2000 м слабый ливневой снег 10/6 300 м
[Cb cap As op]
-1.7 -3.4 88 -8 -7 1015.1 987.5
06 24.04 З 6-11
{11}
50 км в посл. час ливневой снег 10/8 750 м
[Cb cap Ac und]
+1.3 -4.6 65 -5 -4 1016.3 989.0
09 24.04 З 6
{11}
4000 м слабый ливневой снег 10/6 720 м
[Cb cap Ac und]
+0.7 -4.6 68 -5 -5 1019.3 991.8
12 24.04 СЗ 2 н/о н/о -0.7 -4.9 73 -4 -4 1021.8 994.1
15 24.04 СЗ 3 н/о н/о -3.8 -8.9 68 -9 -9 1023.3 995.3
18 24.04 штиль 0 н/о н/о -5.8 -9.0 78 -7 -7 1024.1 995.9
21 24.04 В 2 н/о н/о -10.1 -11.5 89 -15 -15 1024.6 995.9
00 25.04 В 3 50 км 3/0
[Ci fib]
-7.0 -9.9 80 -13 -10 1023.5 995.1 -11.9 50
03 25.04 ЮВ 4 50 км ясно +1.9 -7.0 52 -2 +2 1019.8 992.4
06 25.04 ЮВ 6 50 км 6/0
[Ci fib]
+3.9 -5.7 50 -1 +2 1016.1 989.0
09 25.04 ЮВ 6-10
{10}
50 км 10/0
[Ac As]
+5.2 -4.9 48 +1 +1 1012.2 985.4
12 25.04 ЮВ 5
{12}
н/о н/о +4.5 -3.6 56 0 0 1008.4 981.6 +5.4
15 25.04 Ю 5
{10}
н/о н/о +2.6 +0.2 84 -3 -3 1004.7 977.8
18 25.04 Ю 2 н/о н/о +1.6 +0.8 94 -2 -2 1002.2 975.3
21 25.04 ЮЗ 2 н/о н/о +0.9 -0.4 91 -3 -3 1001.4 974.5
00 26.04 З 2 50 км 10/8 360 м
[Sc As op]
+1.5 -0.5 87 -2 -2 1002.5 975.6 +0.6 1 42
03 26.04 СЗ 4 20 км слабый дождь {снег} 10/8 300 м
[Sc As op]
+2.6 +0.2 84 -2 -2 1004.3 977.5
06 26.04 З 5 10 км слабый снег {дождь} 10/8 300 м
[Sc As op]
+1.0 -0.1 92 -5 -5 1006.5 979.5
09 26.04 З 4
{10}
50 км {снег} 10/8 480 м
[Sc As op]
+1.2 -3.0 74 -4 -4 1007.7 980.6
12 26.04 З 3 н/о н/о +1.0 -3.4 72 -3 -3 1007.4 980.3 +2.7
15 26.04 З 3 н/о н/о -0.0 -3.7 76 -4 -4 1006.7 979.5
18 26.04 С 2 н/о н/о -1.3 -4.5 79 -5 -5 1006.3 979.0
21 26.04 СЗ 2 н/о н/о -3.4 -5.5 85 -7 -7 1006.4 978.9
00 27.04 С 2 50 км 10/8 570 м
[Sc As op]
-2.5 -5.1 82 -6 -6 1007.0 979.6 -3.3 40
03 27.04 С 4 20 км слабый снег 10/8 400 м
[Sc As op]
-1.3 -5.0 76 -7 -7 1007.7 980.4
06 27.04 СЗ 3 50 км {снег} 10/5 600 м
[Sc Ac As]
+0.1 -5.8 64 -4 -3 1008.1 980.9
09 27.04 С 4 50 км 10/4 600 м
[Cb cap Ac trans Ci sp]
0.0 -5.2 68 -5 -5 1008.8 981.5
12 27.04 СЗ 4 н/о н/о -0.3 -6.0 65 -5 -5 1009.3 982.0 +1.4
15 27.04 С 5 н/о н/о -3.8 -7.5 75 -11 -11 1009.2 981.6
18 27.04 С 5 н/о н/о -7.2 -10.1 80 -15 -15 1009.4 981.5
21 27.04 С 3 н/о н/о -9.2 -12.0 80 -15 -15 1008.8 980.6
00 28.04 С 3 4000 м слабый снег 10/8 330 м
[Sc As op]
-9.9 -13.0 78 -16 -16 1009.4 981.1 -10.0 0.4 35
03 28.04 С 4 10 км слабый снег 10/5 300 м
[Sc As op]
-8.4 -13.7 66 -15 -15 1009.4 981.3
06 28.04 С 6 50 км {снег} 5/0
[Ci fib]
-7.5 -14.6 57 -15 -13 1009.7 981.7
09 28.04 С 6
{10}
50 км 8/3 1500 м
[Cu hum Ci fib]
-7.4 -14.4 57 -15 -14 1011.9 983.8
12 28.04 С 4 н/о н/о -8.9 -13.7 68 -16 -16 1014.6 986.3 -7.1
15 28.04 СЗ 2 н/о н/о -11.5 -16.7 65 -16 -16 1015.7 987.1
18 28.04 С 4 н/о н/о -14.3 -18.1 73 -22 -22 1017.0 988.0
00 29.04 З 1 н/о н/о -12.2 -17.5 65 -14 -14 1016.9 988.1 -15.5
03 29.04 С 1 н/о н/о -8.8 -16.8 52 -11 -11 1015.1 986.8

 

Местоположение метеостанции Оленек (Якутия, Россия): широта 68.50 долгота 112.40 высота над уровнем моря 220 м.

В архиве по умолчанию представлена погода в Оленеке за последнюю неделю. Архивные данные за месяц целиком и за предыдущие месяцы, начиная с января 2011 года, Вы можете получить, выбрав интересующий диапазон дат из раскрывающегося списка и нажав кнопку "Ввод!".

Внимание! Время в таблицах - всемирное. Для получения местного времени необходимо прибавить поправку, которая в Оленеке равна 9 ч.

Смотрите также архив погоды в соседних городах и на ближайших метеорологических станциях:

Погода в Джалинде (Якутия, Россия) (191 км)
Погода в Полярном (Якутия, Россия) (197 км)
Погода в Ярольине (Якутия, Россия) (224 км)
Погода в Сухане (Якутия, Россия) (240 км)
Погода в Шелагонцах (Якутия, Россия) (262 км)
Погода в Эйке (Якутия, Россия) (349 км)
Погода в Саскылахе (Якутия, Россия) (391 км)
Погода в Хабардино (Якутия, Россия) (434 км)
Погода в Джарджане (Якутия, Россия) (470 км)
Погода в Жиганске (Якутия, Россия) (498 км)

Пояснения к столбцам:

Ветер - указаны скорость ветра в м/с - средняя за 10 мин, порывы в срок и между сроками (в фигурных скобках) и направление, откуда дует ветер: С - северный, СВ - северо-восточный, В - восточный, ЮВ - юго-восточный, Ю - южный, ЮЗ - юго-западный, З - западный, СЗ - северо-западный.
Видимость - горизонтальная дальность видимости в метрах или километрах. При видимости от 1 до 10 км при отсутствии осадков обычно наблюдается дымка, при ухудшении видимости до 1 км и менее - туман. В сухую погоду видимость может ухудшаться дымом, пылью или мглою.
Явления - указаны атмосферные явления, наблюдавшиеся в срок или в последний час перед сроком; фигурными скобками обозначены явления, наблюдавшиеся между сроками (за 1-3 часа до срока); квадратными скобками обозначены град или гололедные отложения с указанием их диаметра в мм.
Облачность - указаны через наклонную черту общая и нижняя облачность в баллах и высота нижней границы облаков в метрах; квадратными скобками обозначены формы облаков: Ci - перистые, Cs - перисто-слоистые, Cc - перисто-кучевые, Ac - высококучевые, As - высокослоистые, Sc - слоисто-кучевые, Ns - слоисто-дождевые, Cu - кучевые, Cb - кучево-дождевые. Подробнее классификацию облаков см. в Атласе облаков (PDF).
T - Температура воздуха - температура, измеренная на высоте 2 м над землей.
Td - Температура точки росы - температура, при понижении до которой содержащийся в воздухе водяной пар достигнет насыщения.
f - Относительная влажность воздуха - влажноcть воздуха, измеренная на высоте 2 м над землей.
Te - Эффективная температура - температура, которую ощущает одетый по сезону человек в тени. Характеристика душности погоды. При расчете учитывается влияние влажности воздуха и скорости ветра на теплоощущения человека.
Tes - Эффективная температура на солнце - температура, которую ощущает человек, с поправкой на солнечный нагрев. Характеристика знойности погоды. Зависит от высоты солнца над горизонтом, облачности и скорости ветра. Ночью, в пасмурную погоду, а также при ветре 12 м/с и более поправка равна нулю.
P - Атмосферное давление - приведенное к уровню моря атмосферное давление.
Po - Атмосферное давление - измеренное на уровне метеостанции атмосферное давление.
Tmin - Минимальная температура - минимум температуры воздуха на высоте 2 м над землей.
Tmax - Максимальная температура - максимум температуры воздуха на высоте 2 м над землей.
R - Количество осадков - Количество выпавших осадков за период времени, мм. При наведении курсора мыши на число - период времени, за который выпало указанное количество осадков.
R24 - Количество осадков - Количество выпавших осадков за 24 часа, мм.
S - Снежный покров - Высота снежного покрова, см. При наведении курсора мыши на число - состояние снежного покрова и степень покрытия местности в баллах.